Terminal Aerodrome Forecast
Issued by NWS

Home | Current Version | Previous Version | Text Only | Print | Product List | Glossary On
Versions: 1 2 3 4 5 6 7 8 9 10 11 12 13 14 15 16 17 18 19 20 21
000
FTUS46 KLOX 300500
TAFSBA
TAF
KSBA 300539Z 3006/3106 13006KT P6SM SCT150 BKN250
     FM301300 VRB03KT P6SM SCT004 BKN200
     FM301730 16006KT P6SM BKN150
     FM302100 25008KT P6SM BKN150
     FM310200 VRB03KT P6SM SCT150 WS010/34025KT=

USA.gov is the U.S. government's official web portal to all federal, state and local government web resources and services.